Date String (YYYY-MM-DD hh:mm:ss) UTC,Instrument flags,absolute air pressure of the measurement (hPa),sample flow rate (lpm),inlet stack bypass flow (lpm),air temperature of the measurement (°C),ambient temperature measured by the external sensor (°C),aerosol sample conditioner tube jacket temperature (°C),OPC LED temperature (°C),internal box temperature (°C),relative humidity of the measurement (%),span deviation,mass concentration of particles derived from Lorenz-Mie calculation of OPC scattering (μg/m³),mass concentration of particles derived from Lorenz-Mie calculation of OPC scattering (μg/m³),mass concentration of particles derived from Lorenz-Mie calculation of OPC scattering (μg/m³)
DateTimeUTC,F1_M11,P_M11,Q1_M11,Q2_M11,T1_M11,T2_M11,T3_M11,T4_M11,T5_M11,U1_M11,ZSPAN_M11,X2_M11,X0_M11,X1_M11
2023-12-05 02:00:00,SystemResetWarning,0832.1,5.01,000.00,022.4,021.6,000.0,030.7,023.8,15.3,0000.0,0000.30,0001.33,0000.25
2023-12-05 02:01:00,SystemResetWarning,0832.2,5.00,000.00,022.4,021.7,000.0,030.7,023.8,15.4,0000.0,0000.30,0001.35,0000.25
2023-12-05 02:02:00,SystemResetWarning,0832.3,5.00,000.00,022.5,021.7,000.0,030.7,023.8,15.4,0000.0,0000.32,0001.39,0000.25
2023-12-05 02:03:00,SystemResetWarning,0832.3,4.99,000.00,022.5,021.7,000.0,030.7,023.8,15.4,0000.0,0000.33,0001.39,0000.25
2023-12-05 02:04:00,SystemResetWarning,0832.5,4.99,000.00,022.5,021.7,000.0,030.7,023.8,15.3,0000.0,0000.33,0001.39,0000.26
2023-12-05 02:05:00,SystemResetWarning,0832.6,4.99,000.00,022.5,021.7,000.0,030.8,023.9,15.1,0000.0,0000.34,0001.39,0000.26
2023-12-05 02:06:00,SystemResetWarning,0832.6,5.01,000.00,022.5,021.7,000.0,030.8,023.9,15.1,0000.0,0000.33,0001.38,0000.26
2023-12-05 02:07:00,SystemResetWarning,0832.7,5.01,000.00,022.5,021.8,000.0,030.8,023.9,15.1,0000.0,0000.33,0001.39,0000.26
2023-12-05 02:08:00,SystemResetWarning,0832.7,5.00,000.00,022.5,021.8,000.0,030.8,023.8,15.2,0000.0,0000.32,0001.36,0000.25
2023-12-05 02:09:00,SystemResetWarning,0832.7,5.00,000.00,022.5,021.8,000.0,030.8,023.9,15.3,0000.0,0000.33,0001.40,0000.25
2023-12-05 02:10:00,SystemResetWarning,0832.6,4.99,000.00,022.5,021.8,000.0,030.8,023.9,15.1,0000.0,0000.34,0000.66,0000.25
2023-12-05 02:11:00,SystemResetWarning,0832.6,5.00,000.00,022.5,021.8,000.0,030.8,023.9,15.0,0000.0,0000.35,0000.65,0000.25
2023-12-05 02:12:00,SystemResetWarning,0832.7,5.00,000.00,022.6,021.8,000.0,030.8,023.9,15.0,0000.0,0000.34,0000.64,0000.25
2023-12-05 02:13:00,SystemResetWarning,0832.6,5.00,000.00,022.6,021.8,000.0,030.8,023.9,15.0,0000.0,0000.33,0000.62,0000.25
2023-12-05 02:14:00,SystemResetWarning,0832.6,5.01,000.00,022.6,021.8,000.0,030.8,024.0,15.1,0000.0,0000.33,0000.65,0000.25
2023-12-05 02:15:00,SystemResetWarning,0832.7,5.00,000.00,022.6,021.8,000.0,030.8,024.0,15.1,0000.0,0000.33,0000.67,0000.24
2023-12-05 02:16:00,SystemResetWarning,0832.7,4.99,000.00,022.6,021.9,000.0,030.8,024.0,15.1,0000.0,0000.31,0000.64,0000.24
2023-12-05 02:17:00,SystemResetWarning,0832.7,5.00,000.00,022.6,021.9,000.0,030.8,024.0,15.0,0000.0,0000.32,0000.67,0000.24
2023-12-05 02:18:00,SystemResetWarning,0832.7,5.00,000.00,022.6,021.9,000.0,030.9,024.0,14.9,0000.0,0000.31,0000.65,0000.24
2023-12-05 02:19:00,SystemResetWarning,0832.8,4.99,000.00,022.6,021.9,000.0,030.9,024.0,15.0,0000.0,0000.31,0000.64,0000.23
2023-12-05 02:20:00,SystemResetWarning,0833.1,5.00,000.00,022.7,021.9,000.0,030.9,024.0,15.0,0000.0,0000.30,0000.59,0000.23
2023-12-05 02:21:00,SystemResetWarning,0833.0,5.00,000.00,022.7,021.9,000.0,030.9,024.0,15.0,0000.0,0000.29,0000.55,0000.23
2023-12-05 02:22:00,SystemResetWarning,0833.1,5.00,000.00,022.7,021.9,000.0,030.9,024.1,15.0,0000.0,0000.27,0000.45,0000.23
2023-12-05 02:23:00,SystemResetWarning,0833.1,5.00,000.00,022.7,022.0,000.0,030.9,024.1,15.0,0000.0,0000.28,0000.48,0000.23
2023-12-05 02:24:00,SystemResetWarning,0833.2,5.00,000.00,022.7,022.0,000.0,030.9,024.1,15.0,0000.0,0000.28,0000.66,0000.23
2023-12-05 02:25:00,SystemResetWarning,0833.2,4.99,000.00,022.7,022.0,000.0,030.9,024.1,15.2,0000.0,0000.28,0000.65,0000.24
2023-12-05 02:26:00,SystemResetWarning,0833.2,5.00,000.00,022.7,022.0,000.0,030.9,024.1,16.0,0000.0,0000.28,0000.67,0000.24
2023-12-05 02:27:00,SystemResetWarning,0833.3,5.00,000.00,022.7,022.0,000.0,030.9,024.1,16.5,0000.0,0000.28,0000.77,0000.24
2023-12-05 02:28:00,SystemResetWarning,0833.2,5.00,000.00,022.7,021.9,000.0,030.9,024.1,16.7,0000.0,0000.27,0000.74,0000.23
2023-12-05 02:29:00,SystemResetWarning,0833.2,5.00,000.00,022.7,021.9,000.0,031.0,024.1,16.9,0000.0,0000.27,0000.75,0000.23
2023-12-05 02:30:00,SystemResetWarning,0833.2,5.00,000.00,022.7,021.9,000.0,031.0,024.1,16.9,0000.0,0000.28,0000.76,0000.24
2023-12-05 02:31:00,SystemResetWarning,0833.3,5.00,000.00,022.7,021.9,000.0,031.0,024.1,16.9,0000.0,0000.30,0000.80,0000.24
2023-12-05 02:32:00,SystemResetWarning,0833.4,5.00,000.00,022.7,021.9,000.0,031.0,024.1,17.1,0000.0,0000.33,0000.87,0000.25
2023-12-05 02:33:00,SystemResetWarning,0833.4,5.00,000.00,022.7,021.9,000.0,031.0,024.1,17.1,0000.0,0000.36,0000.98,0000.25
2023-12-05 02:34:00,SystemResetWarning,0833.4,5.01,000.00,022.7,021.9,000.0,031.0,024.1,17.2,0000.0,0000.40,0001.03,0000.28
2023-12-05 02:35:00,SystemResetWarning,0833.3,5.01,000.00,022.8,021.9,000.0,031.0,024.1,17.3,0000.0,0000.60,0001.49,0000.41
2023-12-05 02:36:00,SystemResetWarning,0833.2,5.01,000.00,022.8,021.9,000.0,031.0,024.1,17.4,0000.0,0000.81,0002.36,0000.53
2023-12-05 02:37:00,SystemResetWarning,0833.2,4.99,000.00,022.8,021.9,000.0,031.0,024.1,17.5,0000.0,0000.99,0004.02,0000.66
2023-12-05 02:38:00,SystemResetWarning,0833.2,4.99,000.00,022.8,021.9,000.0,031.0,024.1,17.6,0000.0,0001.23,0004.71,0000.79
2023-12-05 02:39:00,SystemResetWarning,0833.3,5.00,000.00,022.7,021.9,000.0,031.0,024.1,17.7,0000.0,0001.47,0005.35,0000.93
2023-12-05 02:40:00,SystemResetWarning,0833.4,5.01,000.00,022.7,021.8,000.0,031.0,024.0,17.8,0000.0,0001.68,0006.96,0001.06
2023-12-05 02:41:00,SystemResetWarning,0833.4,5.01,000.00,022.7,021.8,000.0,031.0,024.0,17.9,0000.0,0001.88,0008.58,0001.19
2023-12-05 02:42:00,SystemResetWarning,0833.5,5.00,000.00,022.7,021.8,000.0,031.0,024.1,17.9,0000.0,0002.10,0009.46,0001.32
2023-12-05 02:43:00,SystemResetWarning,0833.5,5.00,000.00,022.7,021.8,000.0,031.0,024.0,18.0,0000.0,0002.29,0010.33,0001.45
2023-12-05 02:44:00,SystemResetWarning,0833.5,4.99,000.00,022.7,021.8,000.0,031.0,024.0,18.0,0000.0,0002.45,0010.82,0001.55
2023-12-05 02:45:00,SystemResetWarning,0833.6,4.99,000.00,022.7,021.8,000.0,031.0,024.0,18.2,0000.0,0002.61,0011.05,0001.62
2023-12-05 02:46:00,SystemResetWarning,0833.7,5.00,000.00,022.7,021.8,000.0,031.0,024.0,18.2,0000.0,0002.53,0011.15,0001.58
2023-12-05 02:47:00,SystemResetWarning,0833.8,5.01,000.00,022.7,021.8,000.0,031.0,024.0,18.3,0000.0,0002.45,0012.08,0001.54
2023-12-05 02:48:00,SystemResetWarning,0833.8,5.01,000.00,022.7,021.8,000.0,031.0,024.0,18.3,0000.0,0002.45,0011.60,0001.50
2023-12-05 02:49:00,SystemResetWarning,0833.8,5.00,000.00,022.7,021.8,000.0,031.0,024.0,18.3,0000.0,0002.39,0011.39,0001.44
2023-12-05 02:50:00,SystemResetWarning,0833.8,4.99,000.00,022.7,021.7,000.0,031.0,024.0,18.3,0000.0,0002.33,0011.85,0001.38
2023-12-05 02:51:00,SystemResetWarning,0833.8,4.99,000.00,022.7,021.7,000.0,031.0,024.0,18.4,0000.0,0002.29,0011.42,0001.33
2023-12-05 02:52:00,SystemResetWarning,0833.8,5.00,000.00,022.7,021.7,000.0,031.0,024.0,18.4,0000.0,0002.29,0010.27,0001.28
2023-12-05 02:53:00,SystemResetWarning,0833.8,5.01,000.00,022.7,021.7,000.0,031.0,024.0,18.4,0000.0,0002.22,0009.72,0001.21
2023-12-05 02:54:00,SystemResetWarning,0834.0,5.01,000.00,022.7,021.7,000.0,031.0,024.0,18.4,0000.0,0002.14,0009.06,0001.15
2023-12-05 02:55:00,SystemResetWarning,0834.0,5.01,000.00,022.7,021.7,000.0,031.0,024.0,18.4,0000.0,0002.12,0008.64,0001.10
2023-12-05 02:56:00,SystemResetWarning,0834.0,5.00,000.00,022.7,021.7,000.0,031.0,024.0,18.5,0000.0,0002.06,0008.54,0001.08
2023-12-05 02:57:00,SystemResetWarning,0834.1,5.00,000.00,022.7,021.7,000.0,031.0,024.0,18.5,0000.0,0002.05,0008.46,0001.07
2023-12-05 02:58:00,SystemResetWarning,0834.1,5.00,000.00,022.7,021.7,000.0,031.0,024.0,18.5,0000.0,0002.07,0007.86,0001.05
2023-12-05 02:59:00,SystemResetWarning,0834.1,4.99,000.00,022.7,021.7,000.0,031.0,024.0,18.5,0000.0,0002.04,0007.71,0001.04
